Location: ??????
(36.0418°N, 43.6351°E)
Time: 03:29:31
(UTC+00:00)

Cosmos 2074 Rocket - Pass Details

Date: 07 March 2021
Orbit: 967 x 986 km, 82.9° (Epoch: 22 April)

Event Time Altitude Azimuth Distance (km) Brightness Sun altitude
Rises 02:16:49 0° 354° (N) 3,666 7.0 -15.1°
Reaches altitude 10° 02:19:20 10° 355° (N) 2,714 6.3 -14.6°
Maximum altitude 02:25:34 85° 84° (E) 975 4.0 -13.4°
Drops below altitude 10° 02:31:45 10° 173° (S) 2,698 6.4 -12.1°
Sets 02:34:15 0° 174° (S) 3,642 7.1 -11.6°
